Location: Duac?
(36.9744°N, 30.6500°E)
Time: 00:59:32
(UTC+00:00)

CENTAUR R/B - Pass Details

Date: 05 August 2024
Orbit: 663 x 1521 km, 63.4° (Epoch: 12 September)

Event Time Altitude Azimuth Distance (km) Brightness Sun altitude
Rises 18:51:08 0° 328° (NNW) 4,290 7.2 -19.8°
Reaches altitude 10° 18:53:50 10° 329° (NNW) 3,412 6.4 -20.2°
Maximum altitude 19:02:31 85° 59° (ENE) 1,492 3.3 -21.5°
Enters shadow 19:07:21 34° 145° (SE) 2,309 3.9 -22.2°
